{"data":{"norad_id":68567,"intl_designator":"2026-070AB","name":"STARLINK-37261","alt_names":[],"object_type":"PAYLOAD","status":"ACTIVE","operator":null,"country":"US","launch_date":"2026-04-02","launch_site_code":"AFETR","launch_vehicle":null,"mission":null,"orbit_class":"UNKNOWN","rcs_meters":null,"size_class":null,"mass_kg":null,"dimensions":null,"purposes":["comms"],"wikipedia_slug":null,"has_3d_model":false,"image_url":null,"decayed_at":null,"tle_current":{"epoch":"2026-09-20T01:17:50.504064Z","epoch_age_seconds":83262,"freshness":"FRESH","line1":"1 68567U 26070AB  26263.05405676  .00011242  00000+0  34329-3 0  9992","line2":"2 68567  53.1567 175.4386 0000491  88.5609 271.5450 15.34404038 26379","mean_motion":15.34404038,"eccentricity":4.91e-5,"inclination_deg":53.1567,"raan_deg":175.4386,"arg_perigee_deg":88.5609,"mean_anomaly_deg":271.545,"bstar":0.00034329,"rev_number":2637,"period_min":93.847511107762,"perigee_km":462.35535377995,"apogee_km":463.02712311296,"semimajor_km":6840.8282384465,"source":"CELESTRAK","updated_at":"2026-09-20T09:00:43.939345Z"}}}